This demonstration page uses our WeatherBlox Daily Observations layout. Learn more.

Left ArrowRight Arrow

30.21309, -93.2044

Hourly Observations for July 12, 2019

Temp ( °F °C ) Dew Point ( °F °C ) Humidity (%) Winds ( mph kmh ) Pressure ( in mb ) Visibility ( mi km ) Precip ( " mm )
12:15 am 00:15 Partly Cloudy 80 26.7 76 24.3 87 87 Calm 29.80 1009 10 16 0.00 0.00
12:35 am 00:35 Mostly Cloudy 80 26.7 76 24.2 86 86 E 8 13 29.79 1009 10 16 0.00 0.00
12:55 am 00:55 Mostly Cloudy 81 27.2 75 23.9 82 82 Calm 29.79 1009 10 16 0.00 0.00
1:15 am 01:15 Partly Cloudy 81 27.3 76 24.3 84 84 N 8 13 29.78 1008 10 16 0.00 0.00
1:35 am 01:35 Clear 81 27.1 76 24.2 84 84 N 8 13 29.78 1008 10 16 0.00 0.00
1:55 am 01:55 Clear 80 26.8 75 24.1 85 85 N 9 15 29.77 1008 10 16 0.00 0.00
2:15 am 02:15 Clear 80 26.7 75 24 85 85 NNE 5 7 29.77 1008 10 16 0.00 0.00
2:35 am 02:35 Clear 80 26.5 75 24 86 86 NNE 5 7 29.77 1008 10 16 0.00 0.00
2:55 am 02:55 Clear 80 26.4 75 23.7 85 85 NNE 7 11 29.76 1008 10 16 0.00 0.00
3:15 am 03:15 Clear 79 26.1 74 23.3 85 85 NNE 10 17 29.77 1008 10 16 0.00 0.00
3:35 am 03:35 Clear 78 25.8 73 23 85 85 NNE 6 9 29.77 1008 10 16 0.00 0.00
3:55 am 03:55 Clear 78 25.5 74 23.1 87 87 N 5 7 29.77 1008 7 11 0.00 0.00
4:15 am 04:15 Partly Cloudy 78 25.3 74 23.2 88 88 NNE 5 7 29.77 1008 10 16 0.00 0.00
4:35 am 04:35 Cloudy 78 25.5 74 23.2 87 87 NNE 7 11 29.76 1008 10 16 0.00 0.00
4:55 am 04:55 Partly Cloudy 77 25.2 74 23.1 88 88 NNE 9 15 29.76 1008 10 16 0.00 0.00
5:15 am 05:15 Clear 77 25.2 73 23 88 88 NNE 8 13 29.76 1008 10 16 0.00 0.00
5:35 am 05:35 Clear 77 25.2 73 23 88 88 NNE 10 17 29.77 1008 10 16 0.00 0.00
6:00 am 06:00 Mostly Clear 77 25 73 23 89 89 NNE 8 13 29.77 1008 10 16 0.00 0.00
6:45 am 06:45 Mostly Sunny 77 25 73 23 89 89 N 6 9 29.77 1008 10 16 0.00 0.00
7:55 am 07:55 Mostly Sunny 79 26 73 23 84 84 N 9 15 29.77 1008 10 16 0.00 0.00
8:50 am 08:50 Mostly Sunny 81 27 75 24 84 84 NNE 16 26 29.77 1008 10 16 0.00 0.00
9:50 am 09:50 Mostly Sunny 84 29 75 24 74 74 N 8 13 29.77 1008 10 16 0.00 0.00
10:55 am 10:55 Mostly Sunny 84 29 75 24 74 74 N 8 13 29.77 1008 10 16 0.00 0.00
11:50 am 11:50 Mostly Sunny 88 31 73 23 62 62 NNE 16 26 29.75 1007 10 16 0.00 0.00
12:50 pm 12:50 Mostly Cloudy 90 32 73 23 59 59 NNE 18 30 29.74 1007 10 16 0.00 0.00
1:50 pm 13:50 Mostly Cloudy 91 33 75 24 59 59 NNE 17 28 29.72 1006 10 16 0.00 0.00
2:55 pm 14:55 Partly Cloudy 91 33 73 23 56 56 NNE 16 26 29.70 1006 10 16 0.00 0.00
3:55 pm 15:55 Mostly Cloudy 91 33 73 23 56 56 NNE 18 30 29.68 1005 10 16 0.00 0.00
4:50 pm 16:50 Mostly Cloudy 91 33 73 23 56 56 NNE 14 22 29.66 1004 10 16 0.00 0.00
5:50 pm 17:50 Mostly Cloudy 90 32 73 23 59 59 NNE 13 20 29.67 1005 10 16 0.00 0.00
6:50 pm 18:50 Partly Cloudy 88 31 75 24 66 66 N 7 11 29.66 1004 10 16 0.00 0.00
7:50 pm 19:50 Partly Cloudy 88 31 75 24 66 66 NNE 13 20 29.67 1005 10 16 0.00 0.00
8:50 pm 20:50 Partly Cloudy 84 29 73 23 70 70 N 9 15 29.68 1005 10 16 0.00 0.00
9:50 pm 21:50 Partly Cloudy 75 24 75 24 100 100 N 5 7 29.69 1005 10 16 0.00 0.00
10:15 pm 22:15 Clear with Heavy Rain 77 25 75 24 94 94 N 8 13 29.70 1006 10 16 0.00 0.00
10:35 pm 22:35 Clear with Heavy Rain 79 26 75 23.7 87 87 NNE 14 22 29.70 1006 7 11 0.00 0.00
10:55 pm 22:55 Clear with Rain 78 25.7 75 23.8 89 89 N 7 11 29.69 1005 10 16 0.00 0.00
11:15 pm 23:15 Clear with Rain 79 26 74 23.5 86 86 N 8 13 29.68 1005 10 16 0.00 0.00
11:35 pm 23:35 Clear with Heavy Rain 79 26 74 23.4 86 86 N 13 20 29.68 1005 10 16 0.00 0.00
11:55 pm 23:55 Clear with Heavy Rain 79 26 74 23.5 86 86 NNE 17 28 29.67 1005 10 16 0.00 0.00

Powered by AerisWeather